Year,Month,Day,Hour,Minute,Value (Times are PST for temperature in C)
2018,06,17,00,00,23.70
2018,06,17,00,01,23.70
2018,06,17,00,02,23.70
2018,06,17,00,03,23.70
2018,06,17,00,04,23.60
2018,06,17,00,05,23.60
2018,06,17,00,06,23.60
2018,06,17,00,07,23.70
2018,06,17,00,08,23.70
2018,06,17,00,09,23.70
2018,06,17,00,10,23.70
2018,06,17,00,11,23.60
2018,06,17,00,12,23.60
2018,06,17,00,13,23.50
2018,06,17,00,14,23.50
2018,06,17,00,15,23.40
2018,06,17,00,16,23.40
2018,06,17,00,17,23.30
2018,06,17,00,18,23.20
2018,06,17,00,19,23.10
2018,06,17,00,20,23.00
2018,06,17,00,21,22.90
2018,06,17,00,22,22.80
2018,06,17,00,23,22.70
2018,06,17,00,24,22.70
2018,06,17,00,25,22.60
2018,06,17,00,26,22.50
2018,06,17,00,27,22.40
2018,06,17,00,28,22.30
2018,06,17,00,29,22.10
2018,06,17,00,30,21.80
2018,06,17,00,31,21.50
2018,06,17,00,32,21.10
2018,06,17,00,33,20.70
2018,06,17,00,34,20.30
2018,06,17,00,35,20.00
2018,06,17,00,36,19.80
2018,06,17,00,37,19.60
2018,06,17,00,38,19.40
2018,06,17,00,39,19.30
2018,06,17,00,40,19.10
2018,06,17,00,41,19.00
2018,06,17,00,42,18.80
2018,06,17,00,43,18.70
2018,06,17,00,44,18.60
2018,06,17,00,45,18.40
2018,06,17,00,46,18.30
2018,06,17,00,47,18.20
2018,06,17,00,48,18.00
2018,06,17,00,49,17.90
2018,06,17,00,50,17.70
2018,06,17,00,51,17.50
2018,06,17,00,52,17.40
2018,06,17,00,53,17.30
2018,06,17,00,54,17.10
2018,06,17,00,55,17.00
2018,06,17,00,56,16.90
2018,06,17,00,57,16.70
2018,06,17,00,58,16.60
2018,06,17,00,59,16.50
2018,06,17,01,00,16.40
2018,06,17,01,01,16.40
2018,06,17,01,02,16.30
2018,06,17,01,03,16.20
2018,06,17,01,04,16.20
2018,06,17,01,05,16.10
2018,06,17,01,06,16.10
2018,06,17,01,07,16.00
2018,06,17,01,08,16.00
2018,06,17,01,09,15.90
2018,06,17,01,10,15.90
2018,06,17,01,11,15.90
2018,06,17,01,12,15.90
2018,06,17,01,13,15.80
2018,06,17,01,14,15.80
2018,06,17,01,15,15.80
2018,06,17,01,16,15.80
2018,06,17,01,17,15.80
2018,06,17,01,18,15.80
2018,06,17,01,19,15.80
2018,06,17,01,20,15.80
2018,06,17,01,21,15.80
2018,06,17,01,22,15.80
2018,06,17,01,23,15.80
2018,06,17,01,24,15.80
2018,06,17,01,25,15.80
2018,06,17,01,26,15.80
2018,06,17,01,27,15.90
2018,06,17,01,28,15.90
2018,06,17,01,29,15.90
2018,06,17,01,30,15.90
2018,06,17,01,31,16.00
2018,06,17,01,32,16.00
2018,06,17,01,33,16.00
2018,06,17,01,34,16.00
2018,06,17,01,35,16.00
2018,06,17,01,36,16.00
2018,06,17,01,37,16.00
2018,06,17,01,38,15.90
2018,06,17,01,39,15.90
2018,06,17,01,40,15.90
2018,06,17,01,41,15.90
2018,06,17,01,42,15.90
2018,06,17,01,43,15.90
2018,06,17,01,44,15.90
2018,06,17,01,45,15.90
2018,06,17,01,46,15.90
2018,06,17,01,47,15.90
2018,06,17,01,48,15.90
2018,06,17,01,49,15.90
2018,06,17,01,50,16.00
2018,06,17,01,51,16.00
2018,06,17,01,52,16.00
2018,06,17,01,53,16.00
2018,06,17,01,54,16.10
2018,06,17,01,55,16.10
2018,06,17,01,56,16.10
2018,06,17,01,57,16.10
2018,06,17,01,58,16.10
2018,06,17,01,59,16.10
2018,06,17,02,00,16.10
2018,06,17,02,01,16.10
2018,06,17,02,02,16.20
2018,06,17,02,03,16.20
2018,06,17,02,04,16.10
2018,06,17,02,05,16.10
2018,06,17,02,06,16.10
2018,06,17,02,07,16.10
2018,06,17,02,08,16.10
2018,06,17,02,09,16.10
2018,06,17,02,10,16.10
2018,06,17,02,11,16.00
2018,06,17,02,12,16.00
2018,06,17,02,13,16.00
2018,06,17,02,14,16.00
2018,06,17,02,15,16.00
2018,06,17,02,16,16.10
2018,06,17,02,17,16.10
2018,06,17,02,18,16.10
2018,06,17,02,19,16.20
2018,06,17,02,20,16.20
2018,06,17,02,21,16.20
2018,06,17,02,22,16.20
2018,06,17,02,23,16.20
2018,06,17,02,24,16.30
2018,06,17,02,25,16.40
2018,06,17,02,26,16.50
2018,06,17,02,27,16.60
2018,06,17,02,28,16.70
2018,06,17,02,29,16.80
2018,06,17,02,30,16.90
2018,06,17,02,31,17.10
2018,06,17,02,32,17.20
2018,06,17,02,33,17.40
2018,06,17,02,34,17.50
2018,06,17,02,35,17.70
2018,06,17,02,36,17.80
2018,06,17,02,37,17.90
2018,06,17,02,38,18.00
2018,06,17,02,39,18.10
2018,06,17,02,40,18.20
2018,06,17,02,41,18.30
2018,06,17,02,42,18.40
2018,06,17,02,43,18.50
2018,06,17,02,44,18.60
2018,06,17,02,45,18.70
2018,06,17,02,46,18.90
2018,06,17,02,47,19.10
2018,06,17,02,48,19.30
2018,06,17,02,49,19.40
2018,06,17,02,50,19.40
2018,06,17,02,51,19.40
2018,06,17,02,52,19.40
2018,06,17,02,53,19.40
2018,06,17,02,54,19.40
2018,06,17,02,55,19.40
2018,06,17,02,56,19.40
2018,06,17,02,57,19.40
2018,06,17,02,58,19.30
2018,06,17,02,59,19.30
2018,06,17,03,00,19.30
2018,06,17,03,01,19.30
2018,06,17,03,02,19.30
2018,06,17,03,06,19.40
2018,06,17,03,07,19.50
2018,06,17,03,08,19.50
2018,06,17,03,09,19.60
2018,06,17,03,10,19.60
2018,06,17,03,11,19.60
2018,06,17,03,12,19.60
2018,06,17,03,13,19.60
2018,06,17,03,14,19.60
2018,06,17,03,15,19.50
2018,06,17,03,16,19.50
2018,06,17,03,17,19.40
2018,06,17,03,18,19.40
2018,06,17,03,19,19.40
2018,06,17,03,20,19.40
2018,06,17,03,21,19.40
2018,06,17,03,22,19.40
2018,06,17,03,23,19.40
2018,06,17,03,24,19.40
2018,06,17,03,25,19.40
2018,06,17,03,26,19.40
2018,06,17,03,27,19.30
2018,06,17,03,28,19.30
2018,06,17,03,29,19.30
2018,06,17,03,30,19.30
2018,06,17,03,31,19.20
2018,06,17,03,32,19.20
2018,06,17,03,33,19.20
2018,06,17,03,34,19.10
2018,06,17,03,35,19.10
2018,06,17,03,36,19.10
2018,06,17,03,37,19.10
2018,06,17,03,38,19.10
2018,06,17,03,39,19.10
2018,06,17,03,40,19.10
2018,06,17,03,41,19.10
2018,06,17,03,42,19.20
2018,06,17,03,43,19.20
2018,06,17,03,44,19.20
2018,06,17,03,45,19.20
2018,06,17,03,46,19.30
2018,06,17,03,47,19.30
2018,06,17,03,48,19.30
2018,06,17,03,49,19.30
2018,06,17,03,50,19.30
2018,06,17,03,51,19.30
2018,06,17,03,52,19.30
2018,06,17,03,53,19.30
2018,06,17,03,54,19.30
2018,06,17,03,55,19.30
2018,06,17,03,56,19.20
2018,06,17,03,57,19.20
2018,06,17,03,58,19.10
2018,06,17,03,59,19.10
2018,06,17,04,00,19.00
2018,06,17,04,01,19.00
2018,06,17,04,02,18.90
2018,06,17,04,03,19.00
2018,06,17,04,04,19.10
2018,06,17,04,05,19.10
2018,06,17,04,06,19.20
2018,06,17,04,07,19.30
2018,06,17,04,08,19.40
2018,06,17,04,09,19.50
2018,06,17,04,10,19.50
2018,06,17,04,11,19.60
2018,06,17,04,12,19.60
2018,06,17,04,13,19.60
2018,06,17,04,14,19.70
2018,06,17,04,15,19.70
2018,06,17,04,16,19.60
2018,06,17,04,17,19.60
2018,06,17,04,18,19.50
2018,06,17,04,19,19.50
2018,06,17,04,20,19.40
2018,06,17,04,21,19.40
2018,06,17,04,22,19.40
2018,06,17,04,23,19.40
2018,06,17,04,24,19.30
2018,06,17,04,25,19.30
2018,06,17,04,26,19.30
2018,06,17,04,27,19.20
2018,06,17,04,28,19.20
2018,06,17,04,29,19.20
2018,06,17,04,30,19.20
2018,06,17,04,31,19.20
2018,06,17,04,32,19.20
2018,06,17,04,33,19.10
2018,06,17,04,34,19.00
2018,06,17,04,35,19.00
2018,06,17,04,36,18.90
2018,06,17,04,37,18.90
2018,06,17,04,38,18.90
2018,06,17,04,39,18.90
2018,06,17,04,40,18.90
2018,06,17,04,41,18.90
2018,06,17,04,42,18.90
2018,06,17,04,43,19.00
2018,06,17,04,44,19.00
2018,06,17,04,45,19.10
2018,06,17,04,46,19.10
2018,06,17,04,47,19.10
2018,06,17,04,48,19.10
2018,06,17,04,49,19.10
2018,06,17,04,50,19.10
2018,06,17,04,51,19.10
2018,06,17,04,52,19.00
2018,06,17,04,53,19.00
2018,06,17,04,54,19.10
2018,06,17,04,55,19.10
2018,06,17,04,56,19.10
2018,06,17,04,57,19.10
2018,06,17,04,58,19.10
2018,06,17,04,59,19.10
2018,06,17,05,00,19.00
2018,06,17,05,01,19.00
2018,06,17,05,02,19.00
2018,06,17,05,03,18.90
2018,06,17,05,04,18.90
2018,06,17,05,05,18.80
2018,06,17,05,06,18.80
2018,06,17,05,07,18.80
2018,06,17,05,08,18.80
2018,06,17,05,09,18.70
2018,06,17,05,10,18.70
2018,06,17,05,11,18.70
2018,06,17,05,12,18.80
2018,06,17,05,13,18.90
2018,06,17,05,14,18.90
2018,06,17,05,15,19.00
2018,06,17,05,16,19.10
2018,06,17,05,17,19.20
2018,06,17,05,18,19.30
2018,06,17,05,19,19.30
2018,06,17,05,20,19.30
2018,06,17,05,21,19.30
2018,06,17,05,22,19.30
2018,06,17,05,23,19.30
2018,06,17,05,24,19.30
2018,06,17,05,25,19.30
2018,06,17,05,26,19.30
2018,06,17,05,27,19.30
2018,06,17,05,28,19.40
2018,06,17,05,29,19.40
2018,06,17,05,30,19.30
2018,06,17,05,31,19.30
2018,06,17,05,32,19.30
2018,06,17,05,33,19.20
2018,06,17,05,34,19.20
2018,06,17,05,35,19.20
2018,06,17,05,36,19.20
2018,06,17,05,37,19.10
2018,06,17,05,38,19.10
2018,06,17,05,39,19.10
2018,06,17,05,40,19.10
2018,06,17,05,41,19.20
2018,06,17,05,42,19.20
2018,06,17,05,43,19.20
2018,06,17,05,44,19.20
2018,06,17,05,45,19.20
2018,06,17,05,46,19.30
2018,06,17,05,47,19.30
2018,06,17,05,48,19.40
2018,06,17,05,49,19.50
2018,06,17,05,50,19.50
2018,06,17,05,51,19.60
2018,06,17,05,52,19.60
2018,06,17,05,53,19.70
2018,06,17,05,54,19.70
2018,06,17,05,55,19.70
2018,06,17,05,56,19.60
2018,06,17,05,57,19.50
2018,06,17,05,58,19.40
2018,06,17,05,59,19.40
2018,06,17,06,00,19.30
2018,06,17,06,01,19.30
2018,06,17,06,02,19.20
2018,06,17,06,03,19.20
2018,06,17,06,04,19.20
2018,06,17,06,05,19.30
2018,06,17,06,06,19.30
2018,06,17,06,07,19.30
2018,06,17,06,08,19.30
2018,06,17,06,09,19.30
2018,06,17,06,10,19.20
2018,06,17,06,11,19.20
2018,06,17,06,12,19.10
2018,06,17,06,13,19.20
2018,06,17,06,14,19.30
2018,06,17,06,15,19.30
2018,06,17,06,16,19.40
2018,06,17,06,17,19.40
2018,06,17,06,18,19.40
2018,06,17,06,19,19.50
2018,06,17,06,20,19.50
2018,06,17,06,21,19.60
2018,06,17,06,22,19.60
2018,06,17,06,23,19.60
2018,06,17,06,24,19.70
2018,06,17,06,25,19.70
2018,06,17,06,26,19.70
2018,06,17,06,27,19.70
2018,06,17,06,28,19.80
2018,06,17,06,29,19.80
2018,06,17,06,30,19.80
2018,06,17,06,31,19.90
2018,06,17,06,32,19.90
2018,06,17,06,33,19.90
2018,06,17,06,34,20.00
2018,06,17,06,35,20.00
2018,06,17,06,36,20.10
2018,06,17,06,37,20.10
2018,06,17,06,38,20.10
2018,06,17,06,39,20.20
2018,06,17,06,40,20.20
2018,06,17,06,41,20.20
2018,06,17,06,42,20.30
2018,06,17,06,43,20.30
2018,06,17,06,44,20.30
2018,06,17,06,45,20.30
2018,06,17,06,46,20.30
2018,06,17,06,47,20.30
2018,06,17,06,48,20.30
2018,06,17,06,49,20.40
2018,06,17,06,50,20.40
2018,06,17,06,51,20.40
2018,06,17,06,52,20.50
2018,06,17,06,53,20.50
2018,06,17,06,54,20.60
2018,06,17,06,55,20.60
2018,06,17,06,56,20.60
2018,06,17,06,57,20.70
2018,06,17,06,58,20.80
2018,06,17,06,59,20.80
2018,06,17,07,00,20.90
2018,06,17,07,01,21.00
2018,06,17,07,02,21.00
2018,06,17,07,03,21.00
2018,06,17,07,04,21.10
2018,06,17,07,05,21.10
2018,06,17,07,06,21.10
2018,06,17,07,07,21.20
2018,06,17,07,08,21.20
2018,06,17,07,09,21.20
2018,06,17,07,10,21.20
2018,06,17,07,11,21.20
2018,06,17,07,12,21.20
2018,06,17,07,13,21.20
2018,06,17,07,14,21.20
2018,06,17,07,15,21.20
2018,06,17,07,16,21.30
2018,06,17,07,17,21.30
2018,06,17,07,18,21.30
2018,06,17,07,19,21.30
2018,06,17,07,20,21.30
2018,06,17,07,21,21.40
2018,06,17,07,22,21.40
2018,06,17,07,23,21.50
2018,06,17,07,24,21.50
2018,06,17,07,25,21.60
2018,06,17,07,26,21.60
2018,06,17,07,27,21.60
2018,06,17,07,28,21.60
2018,06,17,07,29,21.70
2018,06,17,07,30,21.70
2018,06,17,07,31,21.70
2018,06,17,07,32,21.70
2018,06,17,07,33,21.70
2018,06,17,07,34,21.70
2018,06,17,07,35,21.80
2018,06,17,07,36,21.80
2018,06,17,07,37,21.80
2018,06,17,07,38,21.90
2018,06,17,07,39,21.90
2018,06,17,07,40,21.90
2018,06,17,07,41,21.90
2018,06,17,07,42,21.90
2018,06,17,07,43,21.90
2018,06,17,07,44,21.80
2018,06,17,07,45,21.80
2018,06,17,07,46,21.80
2018,06,17,07,47,21.80
2018,06,17,07,48,21.80
2018,06,17,07,49,21.80
2018,06,17,07,50,21.80
2018,06,17,07,51,21.80
2018,06,17,07,52,21.70
2018,06,17,07,53,21.70
2018,06,17,07,54,21.70
2018,06,17,07,55,21.70
2018,06,17,07,56,21.70
2018,06,17,07,57,21.80
2018,06,17,07,58,21.80
2018,06,17,07,59,21.90
2018,06,17,08,00,21.90
2018,06,17,08,01,21.90
2018,06,17,08,02,22.00
2018,06,17,08,03,22.00
2018,06,17,08,04,22.10
2018,06,17,08,05,22.10
2018,06,17,08,06,22.10
2018,06,17,08,07,22.20
2018,06,17,08,08,22.20
2018,06,17,08,09,22.30
2018,06,17,08,10,22.30
2018,06,17,08,11,22.40
2018,06,17,08,12,22.40
2018,06,17,08,13,22.40
2018,06,17,08,14,22.40
2018,06,17,08,15,22.50
2018,06,17,08,16,22.40
2018,06,17,08,17,22.40
2018,06,17,08,18,22.50
2018,06,17,08,19,22.50
2018,06,17,08,20,22.60
2018,06,17,08,21,22.60
2018,06,17,08,22,22.50
2018,06,17,08,23,22.50
2018,06,17,08,24,22.50
2018,06,17,08,25,22.50
2018,06,17,08,26,22.50
2018,06,17,08,27,22.60
2018,06,17,08,28,22.60
2018,06,17,08,29,22.60
2018,06,17,08,30,22.60
2018,06,17,08,31,22.60
2018,06,17,08,32,22.60
2018,06,17,08,33,22.60
2018,06,17,08,34,22.60
2018,06,17,08,35,22.60
2018,06,17,08,36,22.60
2018,06,17,08,37,22.70
2018,06,17,08,38,22.80
2018,06,17,08,39,22.90
2018,06,17,08,40,22.90
2018,06,17,08,41,23.00
2018,06,17,08,42,23.00
2018,06,17,08,43,23.00
2018,06,17,08,44,23.00
2018,06,17,08,45,23.00
2018,06,17,08,46,23.10
2018,06,17,08,47,23.10
2018,06,17,08,48,23.10
2018,06,17,08,49,23.20
2018,06,17,08,50,23.20
2018,06,17,08,51,23.20
2018,06,17,08,52,23.30
2018,06,17,08,53,23.40
2018,06,17,08,54,23.50
2018,06,17,08,55,23.60
2018,06,17,08,56,23.70
2018,06,17,08,57,23.80
2018,06,17,08,58,23.80
2018,06,17,08,59,23.90
2018,06,17,09,00,23.90
2018,06,17,09,01,23.90
2018,06,17,09,02,23.90
2018,06,17,09,03,23.90
2018,06,17,09,04,23.90
2018,06,17,09,05,23.80
2018,06,17,09,06,23.80
2018,06,17,09,07,23.80
2018,06,17,09,08,23.80
2018,06,17,09,09,23.80
2018,06,17,09,10,23.80
2018,06,17,09,11,23.80
2018,06,17,09,12,23.90
2018,06,17,09,13,23.90
2018,06,17,09,14,24.00
2018,06,17,09,15,24.10
2018,06,17,09,16,24.10
2018,06,17,09,17,24.10
2018,06,17,09,18,24.10
2018,06,17,09,19,24.10
2018,06,17,09,20,24.10
2018,06,17,09,21,24.20
2018,06,17,09,22,24.10
2018,06,17,09,23,24.10
2018,06,17,09,24,24.00
2018,06,17,09,25,24.00
2018,06,17,09,26,24.00
2018,06,17,09,27,23.90
2018,06,17,09,28,23.90
2018,06,17,09,29,23.80
2018,06,17,09,30,23.90
2018,06,17,09,31,23.90
2018,06,17,09,32,23.90
2018,06,17,09,33,23.90
2018,06,17,09,34,23.80
2018,06,17,09,35,23.80
2018,06,17,09,36,23.80
2018,06,17,09,37,23.70
2018,06,17,09,38,23.70
2018,06,17,09,39,23.70
2018,06,17,09,40,23.60
2018,06,17,09,41,23.60
2018,06,17,09,42,23.60
2018,06,17,09,43,23.60
2018,06,17,09,44,23.70
2018,06,17,09,45,23.70
2018,06,17,09,46,23.70
2018,06,17,09,47,23.70
2018,06,17,09,48,23.80
2018,06,17,09,49,23.80
2018,06,17,09,50,23.90
2018,06,17,09,51,23.90
2018,06,17,09,52,24.00
2018,06,17,09,53,24.10
2018,06,17,09,54,24.20
2018,06,17,09,55,24.30
2018,06,17,09,56,24.30
2018,06,17,09,57,24.40
2018,06,17,09,58,24.40
2018,06,17,09,59,24.40
2018,06,17,10,00,24.40
2018,06,17,10,01,24.50
2018,06,17,10,02,24.60
2018,06,17,10,03,24.70
2018,06,17,10,04,24.70
2018,06,17,10,05,24.80
2018,06,17,10,06,24.80
2018,06,17,10,07,24.80
2018,06,17,10,08,24.80
2018,06,17,10,09,24.80
2018,06,17,10,10,24.80
2018,06,17,10,11,24.80
2018,06,17,10,12,24.80
2018,06,17,10,13,24.80
2018,06,17,10,14,24.90
2018,06,17,10,15,24.90
2018,06,17,10,16,25.00
2018,06,17,10,17,25.00
2018,06,17,10,18,25.10
2018,06,17,10,19,25.20
2018,06,17,10,20,25.20
2018,06,17,10,21,25.30
2018,06,17,10,22,25.40
2018,06,17,10,23,25.40
2018,06,17,10,24,25.50
2018,06,17,10,25,25.50
2018,06,17,10,26,25.50
2018,06,17,10,27,25.60
2018,06,17,10,28,25.60
2018,06,17,10,29,25.60
2018,06,17,10,30,25.70
2018,06,17,10,31,25.80
2018,06,17,10,32,25.80
2018,06,17,10,33,25.80
2018,06,17,10,34,25.90
2018,06,17,10,35,25.90
2018,06,17,10,36,25.90
2018,06,17,10,37,26.00
2018,06,17,10,38,26.00
2018,06,17,10,39,26.00
2018,06,17,10,40,26.10
2018,06,17,10,41,26.10
2018,06,17,10,42,26.10
2018,06,17,10,43,26.10
2018,06,17,10,44,26.20
2018,06,17,10,45,26.20
2018,06,17,10,46,26.30
2018,06,17,10,47,26.40
2018,06,17,10,48,26.50
2018,06,17,10,49,26.60
2018,06,17,10,50,26.60
2018,06,17,10,51,26.50
2018,06,17,10,52,26.60
2018,06,17,10,53,26.60
2018,06,17,10,54,26.60
2018,06,17,10,55,26.70
2018,06,17,10,56,26.70
2018,06,17,10,57,26.70
2018,06,17,10,58,26.70
2018,06,17,10,59,26.70
2018,06,17,11,00,26.70
2018,06,17,11,01,26.80
2018,06,17,11,02,26.90
2018,06,17,11,03,27.00
2018,06,17,11,04,27.10
2018,06,17,11,05,27.20
2018,06,17,11,06,27.40
2018,06,17,11,07,27.50
2018,06,17,11,08,27.60
2018,06,17,11,09,27.60
2018,06,17,11,10,27.50
2018,06,17,11,11,27.30
2018,06,17,11,12,27.10
2018,06,17,11,13,27.00
2018,06,17,11,14,26.90
2018,06,17,11,15,26.80
2018,06,17,11,16,26.60
2018,06,17,11,17,26.50
2018,06,17,11,18,26.50
2018,06,17,11,19,26.40
2018,06,17,11,20,26.40
2018,06,17,11,21,26.50
2018,06,17,11,22,26.60
2018,06,17,11,23,26.50
2018,06,17,11,24,26.50
2018,06,17,11,25,26.50
2018,06,17,11,26,26.50
2018,06,17,11,27,26.60
2018,06,17,11,28,26.70
2018,06,17,11,29,26.80
2018,06,17,11,30,26.90
2018,06,17,11,31,27.10
2018,06,17,11,32,27.20
2018,06,17,11,33,27.30
2018,06,17,11,34,27.50
2018,06,17,11,35,27.60
2018,06,17,11,36,27.80
2018,06,17,11,37,28.00
2018,06,17,11,38,28.10
2018,06,17,11,39,28.20
2018,06,17,11,40,28.20
2018,06,17,11,41,28.20
2018,06,17,11,42,28.10
2018,06,17,11,43,28.10
2018,06,17,11,44,28.10
2018,06,17,11,45,28.20
2018,06,17,11,46,28.20
2018,06,17,11,47,28.20
2018,06,17,11,48,28.20
2018,06,17,11,49,28.20
2018,06,17,11,50,28.20
2018,06,17,11,51,28.00
2018,06,17,11,52,27.90
2018,06,17,11,53,27.80
2018,06,17,11,54,27.80
2018,06,17,11,55,27.90
2018,06,17,11,56,28.00
2018,06,17,11,57,28.00
2018,06,17,11,58,28.00
2018,06,17,11,59,27.90
2018,06,17,12,00,27.80
2018,06,17,12,01,27.80
2018,06,17,12,02,27.80
2018,06,17,12,03,27.90
2018,06,17,12,04,27.80
2018,06,17,12,05,27.70
2018,06,17,12,06,27.40
2018,06,17,12,07,27.20
2018,06,17,12,08,26.90
2018,06,17,12,09,26.80
2018,06,17,12,10,26.80
2018,06,17,12,11,26.90
2018,06,17,12,12,26.90
2018,06,17,12,13,26.90
2018,06,17,12,14,26.90
2018,06,17,12,15,26.90
2018,06,17,12,16,26.90
2018,06,17,12,17,26.90
2018,06,17,12,18,26.90
2018,06,17,12,19,26.90
2018,06,17,12,20,26.90
2018,06,17,12,21,26.80
2018,06,17,12,22,26.80
2018,06,17,12,23,26.80
2018,06,17,12,24,26.80
2018,06,17,12,25,26.70
2018,06,17,12,26,26.50
2018,06,17,12,27,26.30
2018,06,17,12,28,26.20
2018,06,17,12,29,26.10
2018,06,17,12,30,26.10
2018,06,17,12,31,26.10
2018,06,17,12,32,26.10
2018,06,17,12,33,26.20
2018,06,17,12,34,26.30
2018,06,17,12,35,26.40
2018,06,17,12,36,26.50
2018,06,17,12,37,26.70
2018,06,17,12,38,26.80
2018,06,17,12,39,27.00
2018,06,17,12,40,27.20
2018,06,17,12,41,27.40
2018,06,17,12,42,27.40
2018,06,17,12,43,27.40
2018,06,17,12,44,27.50
2018,06,17,12,45,27.50
2018,06,17,12,46,27.60
2018,06,17,12,47,27.60
2018,06,17,12,48,27.70
2018,06,17,12,49,27.70
2018,06,17,12,50,27.80
2018,06,17,12,51,27.90
2018,06,17,12,52,28.00
2018,06,17,12,53,28.10
2018,06,17,12,54,28.20
2018,06,17,12,55,28.20
2018,06,17,12,56,28.20
2018,06,17,12,57,28.10
2018,06,17,12,58,27.80
2018,06,17,12,59,27.60
2018,06,17,13,00,27.30
2018,06,17,13,01,27.10
2018,06,17,13,02,27.00
2018,06,17,13,03,26.80
2018,06,17,13,04,26.80
2018,06,17,13,05,26.80
2018,06,17,13,06,26.70
2018,06,17,13,07,26.60
2018,06,17,13,08,26.60
2018,06,17,13,09,26.70
2018,06,17,13,10,26.80
2018,06,17,13,11,26.90
2018,06,17,13,12,27.10
2018,06,17,13,13,27.30
2018,06,17,13,14,27.50
2018,06,17,13,15,27.80
2018,06,17,13,16,27.80
2018,06,17,13,17,27.90
2018,06,17,13,18,27.90
2018,06,17,13,19,28.00
2018,06,17,13,20,28.00
2018,06,17,13,21,27.90
2018,06,17,13,22,27.90
2018,06,17,13,23,27.80
2018,06,17,13,24,27.90
2018,06,17,13,25,28.00
2018,06,17,13,26,28.00
2018,06,17,13,27,27.80
2018,06,17,13,28,27.60
2018,06,17,13,29,27.50
2018,06,17,13,30,27.30
2018,06,17,13,31,27.20
2018,06,17,13,32,27.00
2018,06,17,13,33,26.80
2018,06,17,13,34,26.80
2018,06,17,13,35,26.80
2018,06,17,13,36,26.80
2018,06,17,13,37,26.80
2018,06,17,13,38,26.80
2018,06,17,13,39,26.70
2018,06,17,13,40,26.70
2018,06,17,13,41,26.70
2018,06,17,13,42,26.70
2018,06,17,13,43,26.80
2018,06,17,13,44,26.80
2018,06,17,13,45,26.80
2018,06,17,13,46,26.80
2018,06,17,13,47,26.90
2018,06,17,13,48,27.10
2018,06,17,13,49,27.20
2018,06,17,13,50,27.10
2018,06,17,13,51,27.10
2018,06,17,13,52,27.10
2018,06,17,13,53,27.10
2018,06,17,13,54,27.10
2018,06,17,13,55,27.10
2018,06,17,13,56,27.10
2018,06,17,13,57,27.10
2018,06,17,13,58,27.10
2018,06,17,13,59,27.00
2018,06,17,14,00,27.00
2018,06,17,14,01,26.90
2018,06,17,14,02,27.00
2018,06,17,14,03,26.90
2018,06,17,14,04,26.90
2018,06,17,14,05,26.90
2018,06,17,14,06,26.80
2018,06,17,14,07,26.70
2018,06,17,14,08,26.70
2018,06,17,14,09,26.80
2018,06,17,14,10,26.80
2018,06,17,14,11,26.90
2018,06,17,14,12,27.10
2018,06,17,14,13,27.10
2018,06,17,14,14,27.30
2018,06,17,14,15,27.40
2018,06,17,14,16,27.40
2018,06,17,14,17,27.50
2018,06,17,14,18,27.60
2018,06,17,14,19,27.50
2018,06,17,14,20,27.40
2018,06,17,14,21,27.20
2018,06,17,14,22,27.10
2018,06,17,14,23,27.00
2018,06,17,14,24,27.00
2018,06,17,14,25,27.10
2018,06,17,14,26,27.10
2018,06,17,14,27,27.20
2018,06,17,14,28,27.20
2018,06,17,14,29,27.30
2018,06,17,14,30,27.30
2018,06,17,14,31,27.30
2018,06,17,14,32,27.30
2018,06,17,14,33,27.20
2018,06,17,14,34,27.30
2018,06,17,14,35,27.40
2018,06,17,14,36,27.40
2018,06,17,14,37,27.40
2018,06,17,14,38,27.40
2018,06,17,14,39,27.40
2018,06,17,14,40,27.40
2018,06,17,14,41,27.40
2018,06,17,14,42,27.40
2018,06,17,14,43,27.40
2018,06,17,14,44,27.30
2018,06,17,14,45,27.20
2018,06,17,14,46,27.00
2018,06,17,14,47,26.80
2018,06,17,14,48,26.70
2018,06,17,14,49,26.70
2018,06,17,14,50,26.70
2018,06,17,14,51,26.70
2018,06,17,14,52,26.80
2018,06,17,14,53,27.00
2018,06,17,14,54,27.10
2018,06,17,14,55,27.10
2018,06,17,14,56,27.10
2018,06,17,14,57,27.10
2018,06,17,14,58,27.20
2018,06,17,14,59,27.30
2018,06,17,15,00,27.40
2018,06,17,15,01,27.50
2018,06,17,15,02,27.70
2018,06,17,15,03,27.70
2018,06,17,15,04,27.70
2018,06,17,15,05,27.70
2018,06,17,15,06,27.60
2018,06,17,15,07,27.60
2018,06,17,15,08,27.70
2018,06,17,15,09,27.60
2018,06,17,15,10,27.50
2018,06,17,15,11,27.50
2018,06,17,15,12,27.40
2018,06,17,15,13,27.40
2018,06,17,15,14,27.50
2018,06,17,15,15,27.60
2018,06,17,15,16,27.70
2018,06,17,15,17,27.80
2018,06,17,15,18,27.90
2018,06,17,15,19,27.80
2018,06,17,15,20,27.80
2018,06,17,15,21,27.80
2018,06,17,15,22,27.80
2018,06,17,15,23,27.70
2018,06,17,15,24,27.70
2018,06,17,15,25,27.70
2018,06,17,15,26,27.70
2018,06,17,15,27,27.70
2018,06,17,15,28,27.70
2018,06,17,15,29,27.70
2018,06,17,15,30,27.70
2018,06,17,15,31,27.70
2018,06,17,15,32,27.80
2018,06,17,15,33,27.80
2018,06,17,15,34,27.80
2018,06,17,15,35,27.80
2018,06,17,15,36,27.70
2018,06,17,15,37,27.70
2018,06,17,15,38,27.70
2018,06,17,15,39,27.70
2018,06,17,15,40,27.70
2018,06,17,15,41,27.80
2018,06,17,15,42,27.80
2018,06,17,15,43,28.00
2018,06,17,15,44,28.10
2018,06,17,15,45,28.30
2018,06,17,15,46,28.60
2018,06,17,15,47,28.80
2018,06,17,15,48,29.00
2018,06,17,15,49,29.20
2018,06,17,15,50,29.30
2018,06,17,15,51,29.50
2018,06,17,15,52,29.60
2018,06,17,15,53,29.70
2018,06,17,15,54,29.80
2018,06,17,15,55,29.80
2018,06,17,15,56,29.80
2018,06,17,15,57,29.80
2018,06,17,15,58,29.80
2018,06,17,15,59,29.80
2018,06,17,16,00,29.90
2018,06,17,16,01,29.90
2018,06,17,16,02,29.90
2018,06,17,16,03,29.90
2018,06,17,16,04,30.00
2018,06,17,16,05,30.10
2018,06,17,16,06,30.20
2018,06,17,16,07,30.20
2018,06,17,16,08,30.30
2018,06,17,16,09,30.40
2018,06,17,16,10,30.40
2018,06,17,16,11,30.50
2018,06,17,16,12,30.60
2018,06,17,16,13,30.60
2018,06,17,16,14,30.60
2018,06,17,16,15,30.60
2018,06,17,16,16,30.60
2018,06,17,16,17,30.70
2018,06,17,16,18,30.70
2018,06,17,16,19,30.80
2018,06,17,16,20,30.90
2018,06,17,16,21,30.90
2018,06,17,16,22,30.90
2018,06,17,16,23,30.80
2018,06,17,16,24,30.80
2018,06,17,16,25,30.70
2018,06,17,16,26,30.60
2018,06,17,16,27,30.50
2018,06,17,16,28,30.50
2018,06,17,16,29,30.30
2018,06,17,16,30,30.10
2018,06,17,16,31,30.10
2018,06,17,16,32,30.10
2018,06,17,16,33,30.10
2018,06,17,16,34,30.20
2018,06,17,16,35,30.20
2018,06,17,16,36,30.20
2018,06,17,16,37,30.30
2018,06,17,16,38,30.30
2018,06,17,16,39,30.20
2018,06,17,16,40,30.20
2018,06,17,16,41,30.10
2018,06,17,16,42,30.00
2018,06,17,16,43,30.00
2018,06,17,16,44,30.00
2018,06,17,16,45,30.00
2018,06,17,16,46,30.00
2018,06,17,16,47,30.00
2018,06,17,16,48,30.00
2018,06,17,16,49,30.00
2018,06,17,16,50,29.90
2018,06,17,16,51,29.90
2018,06,17,16,52,29.90
2018,06,17,16,53,29.90
2018,06,17,16,54,29.90
2018,06,17,16,55,30.00
2018,06,17,16,56,30.00
2018,06,17,16,57,29.90
2018,06,17,16,58,29.90
2018,06,17,16,59,29.90
2018,06,17,17,00,29.90
2018,06,17,17,01,29.90
2018,06,17,17,02,29.90
2018,06,17,17,03,29.90
2018,06,17,17,04,29.80
2018,06,17,17,05,29.80
2018,06,17,17,06,29.90
2018,06,17,17,07,29.90
2018,06,17,17,08,30.00
2018,06,17,17,09,30.10
2018,06,17,17,10,30.20
2018,06,17,17,11,30.20
2018,06,17,17,12,30.10
2018,06,17,17,13,30.10
2018,06,17,17,14,30.10
2018,06,17,17,15,30.10
2018,06,17,17,16,30.10
2018,06,17,17,17,30.10
2018,06,17,17,18,30.10
2018,06,17,17,19,30.00
2018,06,17,17,20,30.00
2018,06,17,17,21,29.90
2018,06,17,17,22,29.90